Regional Weather Roundup
Issued by NWS

Home | Current Version | Previous Version | Text Only | Print | Product List | Glossary Off
Versions: 1 2 3 4 5 6 7 8 9 10 11 12 13 14 15 16 17 18 19 20 21 22 23 24 25 26 27 28 29 30 31 32 33 34 35 36 37 38 39 40 41 42 43 44 45 46 47 48 49 50

000
ASUS43 KDMX 171501
RWRIA

WEATHER ROUNDUP FOR IOWA
NATIONAL WEATHER SERVICE DES MOINES IA
900 AM CST FRI NOV 17 2017

NOTE: "FAIR" INDICATES FEW OR NO CLOUDS BELOW 12,000 FEET WITH NO
SIGNIFICANT WEATHER AND/OR OBSTRUCTIONS TO VISIBILITY.

* - THESE STATIONS ARE NOT NWS STATIONS...THUS NOT UNDER NWS
QUALITY CONTROL.  THEY ALSO DO NOT REPORT WEATHER SUCH
AS PRECIPITATION OR FOG.

IAZ001>003-012>014-020>022-031>034-043>046-171600-
   NORTHWEST IOWA

CITY           SKY/WX    TMP DP  RH WIND       PRES   REMARKS
CARROLL *      CLOUDY    46  41  81 S15       29.66F
CHEROKEE *     CLOUDY    49  43  79 S10       29.62F
DENISON *      CLOUDY    50  45  81 S17       29.65F
LE MARS *      CLOUDY    50  43  76 S13G18    29.59F
ORANGE CITY *  PTSUNNY   50  45  81 S15       29.59F
SHELDON *      CLOUDY    48  39  71 S16       29.58F
SIOUX CITY     MOSUNNY   49  40  71 SE6       29.61F
SPENCER        CLOUDY    44  36  73 S18       29.62F
STORM LAKE *   CLOUDY    45  39  81 S13       29.63F
$$

IAZ055>058-069>071-079>083-090>094-171600-
   SOUTHWEST IOWA

CITY           SKY/WX    TMP DP  RH WIND       PRES   REMARKS
ATLANTIC *     CLOUDY    50  45  81 S10G17    29.67S
AUDUBON *      CLOUDY    48  45  87 S9        29.68F
CLARINDA *     CLOUDY    50  48  93 S8G14       N/A  FOG
COUNCIL BLFS * CLOUDY    54  54 100 S16       29.64S
CRESTON *      CLOUDY    45  41  87 SE18G25   29.71F
HARLAN  *      CLOUDY    50  48  93 S10       29.69F
LAMONI         CLOUDY    47  42  83 SE12      29.73F
RED OAK *      CLOUDY    52  48  87 S10       29.67F
SHENANDOAH *   CLOUDY    52  48  87 SE12      29.67S
$$

IAZ047>049-059>061-072>074-084-171600-
   CENTRAL IOWA

CITY           SKY/WX    TMP DP  RH WIND       PRES   REMARKS
AMES           CLOUDY    40  37  89 SE14      29.75S WCI  32
ANKENY *       CLOUDY    43  37  81 SE10G16   29.77S
BOONE *        CLOUDY    39  36  87 SE17      29.70F FOG     WCI  30
CHARITON *     CLOUDY    43  39  87 SE16      29.76F
DES MOINES     CLOUDY    45  38  76 SE15      29.75F
GRINNELL*      CLOUDY    37  35  92 SE18      29.79F FOG     WCI  27
KNOXVILLE *    CLOUDY    43  37  81 SE13      29.76F
MARSHALLTOWN   CLOUDY    37  35  92 SE16      29.77F FOG     WCI  28
NEWTON *       CLOUDY    37  37 100 SE18      29.77F FOG     WCI  27
PELLA *        CLOUDY    41  36  82 SE13G20   29.80F
PERRY *        CLOUDY    45  39  79 SE17      29.71F
$$

IAZ004>006-015-016-023>025-035-036-171600-
   NORTH CENTRAL IOWA

CITY           SKY/WX    TMP DP  RH WIND       PRES   REMARKS
ALGONA *       CLOUDY    39  37  93 S18       29.66F WCI  30
CLARION *      CLOUDY    39  39 100 S24G30    29.69F WCI  28
ESTHERVILLE    CLOUDY    40  35  83 S22       29.63F WCI  30
FORT DODGE *   CLOUDY    41  36  82 S12G20    29.68F
MASON CITY     LGT RAIN  35  33  92 SE17      29.72F FOG     WCI  25
FOREST CITY *  CLOUDY    37  36  93 S15G22    29.69F WCI  28
WEBSTER CITY * CLOUDY    39  36  87 SE16G23   29.68F WCI  30
IOWA FALLS *   CLOUDY    39  36  89 SE22      29.74F WCI  28
$$

IAZ007>011-017>019-026>030-037>042-050>054-066-171600-
   NORTHEAST IOWA

CITY           SKY/WX    TMP DP  RH WIND       PRES   REMARKS
CEDAR RAPIDS   CLOUDY    36  33  89 SE21G28   29.84F FOG     WCI  25
CHARLES CITY * CLOUDY    36  36 100 SE10G18   29.77F FOG     WCI  28
CLINTON *      CLOUDY    36  31  82 S18G25    29.95F WCI  26
DECORAH *      CLOUDY    34  32  93 S14G21    29.79F WCI  24
DUBUQUE        CLOUDY    34  30  85 S17G28    29.88F WCI  23
MONTICELLO *   MIX PCPN  34  32  93 SE13G18   29.87F WCI  25
OELWEIN *      CLOUDY    36  36 100 S24       29.80F WCI  24
WATERLOO       CLOUDY    36  32  85 S20G25    29.79F FOG     WCI  25
$$

IAZ064-065-067-068-078-171600-
   EAST CENTRAL IOWA

CITY           SKY/WX    TMP DP  RH WIND       PRES   REMARKS
DAVENPORT      CLOUDY    37  30  75 S16G24    29.94F WCI  28
IOWA CITY      CLOUDY    37  33  85 SE13      29.89F WCI  29
MT. PLEASANT * CLOUDY    37  33  87 SE16G23   29.89F FOG     WCI  27
MUSCATINE *    CLOUDY    37  32  81 SE9G17    29.91F WCI  31
QUAD CITIES    LGT RAIN  36  31  82 SE12      29.93F WCI  28
$$

IAZ062-063-075>077-085>089-095>099-171600-
   SOUTHEAST IOWA

CITY           SKY/WX    TMP DP  RH WIND       PRES   REMARKS
BURLINGTON     CLOUDY    36  34  92 S12       29.92F FOG     WCI  28
FAIRFIELD *    CLOUDY    37  34  87 SE16G22   29.85F WCI  28
FORT MADISON * CLOUDY    36  36 100 SE13      29.91F FOG     WCI  27
KEOKUK *       CLOUDY    37  34  87 SE9       29.90F WCI  31
OSKALOOSA *    CLOUDY    38  36  89 SE14      29.82F FOG     WCI  30
OTTUMWA        CLOUDY    41  35  79 SE16      29.82F
WASHINGTON *   CLOUDY    37  36  93 SE14G20   29.88F WCI  29
$$

ABBREVIATIONS USED IN REMARKS
   TC - TEMPERATURES IN CELSIUS
  WCI - WIND CHILL INDEX
   HX - HEAT INDEX
  VSB - VISIBILITY
$$





USA.gov is the U.S. government's official web portal to all federal, state and local government web resources and services.